This demonstration page uses our WeatherBlox Daily Observations layout. Learn more.

Left ArrowRight Arrow

Hourly Observations for May 4, 2017

Temp ( °F °C ) Dew Point ( °F °C ) Humidity (%) Winds ( mph kmh ) Pressure ( in mb ) Visibility ( mi km ) Precip ( " mm )
12:56 am 00:56 Clear 47 8.1 44 6.6 90 90 NW 3 6 30.11 1020 10 16 0.00 0.00
1:56 am 01:56 Clear 45 7.1 43 5.9 92 92 WNW 7 11 30.09 1019 10 16 0.00 0.00
2:56 am 02:56 Clear 43 6.2 41 5.2 93 93 Calm 30.09 1019 10 16 0.00 0.00
3:56 am 03:56 Clear 40 4.7 39 4 95 95 Calm 30.08 1019 9 14 0.00 0.00
4:56 am 04:56 Clear 41 5.2 40 4.6 96 96 WNW 6 9 30.07 1018 10 16 0.00 0.00
5:56 am 05:56 Clear 39 4.1 39 3.7 97 97 WNW 5 7 30.07 1018 7 11 0.00 0.00
6:56 am 06:56 Sunny 37 2.9 37 2.5 97 97 Calm 30.09 1019 10 16 0.00 0.00
7:56 am 07:56 Sunny 47 8.2 46 7.8 97 97 WNW 3 6 30.10 1019 10 16 0.00 0.00
8:56 am 08:56 Sunny 52 11.3 44 6.6 73 73 N 12 19 30.10 1019 10 16 0.00 0.00
9:56 am 09:56 Sunny 58 14.2 44 6.8 61 61 N 10 17 30.11 1020 10 16 0.00 0.00
10:56 am 10:56 Sunny 62 16.4 46 7.6 56 56 N 10 17 30.10 1019 10 16 0.00 0.00
11:56 am 11:56 Partly Cloudy 64 17.8 39 3.7 39 39 N 12 19 30.10 1019 10 16 0.00 0.00
12:42 pm 12:42 Partly Cloudy 64 18 36 2 34 34 N 15 24 30.09 1019 10 16 0.00 0.00
12:56 pm 12:56 Mostly Cloudy 66 18.7 37 2.5 34 34 N 14 22 30.09 1019 10 16 0.00 0.00
1:07 pm 13:07 Partly Cloudy 66 19 36 2 32 32 NNW 20 31 30.08 1019 10 16 0.00 0.00
1:17 pm 13:17 Mostly Sunny 66 19 37 3 35 35 NNE 15 24 30.07 1018 10 16 0.00 0.00
1:24 pm 13:24 Sunny 68 20 37 3 33 33 N 20 31 30.07 1018 10 16 0.00 0.00
1:56 pm 13:56 Partly Cloudy 67 19.3 37 3 34 34 N 10 17 30.07 1018 10 16 0.00 0.00
2:56 pm 14:56 Partly Cloudy 69 20.3 39 3.9 34 34 N 12 19 30.06 1018 10 16 0.00 0.00
3:56 pm 15:56 Mostly Sunny 68 20 38 3.2 33 33 N 13 20 30.06 1018 10 16 0.00 0.00
4:56 pm 16:56 Partly Cloudy 69 20.4 38 3.1 32 32 NNW 14 22 30.05 1018 10 16 0.00 0.00
4:57 pm 16:57 Partly Cloudy 68 20 37 3 33 33 N 13 20 30.05 1018 10 16 0.00 0.00
5:56 pm 17:56 Partly Cloudy 69 20.6 38 3.3 32 32 N 10 17 30.04 1017 10 16 0.00 0.00
6:56 pm 18:56 Mostly Sunny 68 20 37 2.8 32 32 N 8 13 30.04 1017 10 16 0.00 0.00
7:56 pm 19:56 Sunny 65 18.2 37 2.9 36 36 N 6 9 30.04 1017 10 16 0.00 0.00
8:56 pm 20:56 Clear 56 13.2 40 4.6 56 56 N 5 7 30.06 1018 10 16 0.00 0.00
9:56 pm 21:56 Mostly Clear 50 10 40 4.6 69 69 NW 6 9 30.06 1018 10 16 0.00 0.00
10:56 pm 22:56 Clear 50 9.9 42 5.3 73 73 Calm 30.05 1018 10 16 0.00 0.00
11:56 pm 23:56 Clear 46 7.8 40 4.6 80 80 Calm 30.04 1017 10 16 0.00 0.00

Powered by AerisWeather